• In Belarus
  • List of Countries
  • For 7 days
  • Water Temperature
  • Satellite Maps
  • Weather Map
  • Weather Widgets
  • user-avatar
    Login

    Hourly Weather Chudel'

    Today, 16 December, Saturday

    Time Temperature Precipitation Wind Pressure Humidity
    00:00 +2°C° 0 mm 3 mps 738 mmHg 92%
    01:00 +3°C° 0 mm 2 mps 738 mmHg 93%
    02:00 +2°C° 0 mm 2 mps 738 mmHg 94%
    03:00 +2°C° 0.2 mm 2 mps 737 mmHg 94%
    04:00 +2°C° 0.2 mm 2 mps 737 mmHg 93%
    05:00 +2°C° 0.2 mm 2 mps 736 mmHg 93%
    06:00 +2°C° 1.1 mm 2 mps 736 mmHg 94%
    07:00 +2°C° 1.1 mm 2 mps 736 mmHg 94%
    08:00 +2°C° 0 mm 2 mps 735 mmHg 94%
    09:00 +2°C° 1.3 mm 2 mps 735 mmHg 94%
    10:00 +2°C° 1.3 mm 2 mps 735 mmHg 94%
    11:00 +2°C° 1.3 mm 2 mps 735 mmHg 94%
    12:00 +2°C° 0.3 mm 2 mps 735 mmHg 94%
    13:00 +2°C° 0.3 mm 2 mps 735 mmHg 94%
    14:00 +2°C° 0.3 mm 2 mps 735 mmHg 93%
    15:00 +1°C° 0.1 mm 3 mps 735 mmHg 93%
    16:00 +1°C° 0.1 mm 3 mps 736 mmHg 93%
    17:00 +1°C° 0.1 mm 3 mps 736 mmHg 93%
    18:00 0°C° 0.2 mm 3 mps 737 mmHg 93%
    19:00 0°C° 0.2 mm 3 mps 738 mmHg 93%
    20:00 -1°C° 0.2 mm 4 mps 738 mmHg 92%
    21:00 -1°C° 0.1 mm 4 mps 739 mmHg 91%
    22:00 -1°C° 0.1 mm 4 mps 740 mmHg 91%
    23:00 -1°C° 0.1 mm 4 mps 741 mmHg 90%

    Tomorrow, 17 December, Sunday

    Time Temperature Precipitation Wind Pressure Humidity
    00:00 -1°C° 0 mm 4 mps 742 mmHg 90%
    01:00 -2°C° 0 mm 4 mps 743 mmHg 91%
    02:00 -1°C° 0 mm 3 mps 743 mmHg 91%
    03:00 -2°C° 0 mm 3 mps 744 mmHg 92%
    04:00 -2°C° 0 mm 3 mps 744 mmHg 93%
    05:00 -4°C° 0 mm 3 mps 745 mmHg 94%
    06:00 -3°C° 0 mm 2 mps 745 mmHg 94%
    07:00 -3°C° 0 mm 2 mps 746 mmHg 94%
    08:00 -3°C° 0 mm 2 mps 746 mmHg 94%
    09:00 -3°C° 0 mm 2 mps 747 mmHg 92%
    10:00 -2°C° 0 mm 2 mps 747 mmHg 89%
    11:00 -1°C° 0 mm 2 mps 748 mmHg 86%
    12:00 -1°C° 0 mm 2 mps 748 mmHg 85%
    13:00 +1°C° 0 mm 1 mps 748 mmHg 84%
    14:00 +2°C° 0 mm 1 mps 748 mmHg 83%
    15:00 +1°C° 0 mm 1 mps 749 mmHg 86%
    16:00 0°C° 0 mm 1 mps 749 mmHg 89%
    17:00 0°C° 0 mm 1 mps 749 mmHg 91%
    18:00 0°C° 0 mm 1 mps 750 mmHg 91%
    19:00 0°C° 0 mm 1 mps 750 mmHg 92%
    20:00 0°C° 0 mm 1 mps 750 mmHg 92%
    21:00 0°C° 0 mm 1 mps 751 mmHg 91%
    22:00 0°C° 0 mm 1 mps 751 mmHg 90%
    23:00 -2°C° 0 mm 2 mps 751 mmHg 89%

    Day after tomorrow, 18 December, Monday

    Time Temperature Precipitation Wind Pressure Humidity
    00:00 -2°C° 0 mm 2 mps 751 mmHg 88%
    01:00 -2°C° 0 mm 2 mps 752 mmHg 87%
    02:00 -1°C° 0 mm 2 mps 752 mmHg 85%
    03:00 -2°C° 0 mm 2 mps 752 mmHg 85%
    04:00 -2°C° 0 mm 2 mps 752 mmHg 85%
    05:00 -2°C° 0 mm 2 mps 752 mmHg 84%
    06:00 -2°C° 0 mm 2 mps 752 mmHg 86%
    07:00 -2°C° 0 mm 2 mps 752 mmHg 87%
    08:00 -3°C° 0 mm 2 mps 753 mmHg 88%
    09:00 -2°C° 0 mm 2 mps 753 mmHg 87%
    10:00 -2°C° 0 mm 2 mps 753 mmHg 85%
    11:00 -2°C° 0 mm 3 mps 753 mmHg 84%
    12:00 -2°C° 0 mm 3 mps 753 mmHg 83%
    13:00 -2°C° 0 mm 3 mps 753 mmHg 82%
    14:00 -1°C° 0 mm 3 mps 753 mmHg 81%
    15:00 -2°C° 0 mm 3 mps 753 mmHg 84%
    16:00 -2°C° 0 mm 3 mps 753 mmHg 87%
    17:00 -4°C° 0 mm 3 mps 753 mmHg 90%
    18:00 -4°C° 0 mm 3 mps 754 mmHg 90%
    19:00 -4°C° 0 mm 3 mps 754 mmHg 91%
    20:00 -5°C° 0 mm 3 mps 754 mmHg 92%
    21:00 -5°C° 0 mm 3 mps 754 mmHg 92%
    22:00 -5°C° 0 mm 3 mps 755 mmHg 92%
    23:00 -5°C° 0 mm 3 mps 755 mmHg 92%

    19 December, Tuesday

    Time Temperature Precipitation Wind Pressure Humidity
    00:00 -5°C° 0 mm 3 mps 755 mmHg 92%
    01:00 -5°C° 0 mm 3 mps 755 mmHg 91%
    02:00 -5°C° 0 mm 3 mps 755 mmHg 91%
    03:00 -5°C° 0 mm 3 mps 755 mmHg 90%
    04:00 -5°C° 0 mm 3 mps 755 mmHg 89%
    05:00 -5°C° 0 mm 3 mps 755 mmHg 89%
    06:00 -5°C° 0 mm 3 mps 756 mmHg 88%
    07:00 -5°C° 0 mm 3 mps 756 mmHg 88%
    08:00 -5°C° 0 mm 3 mps 756 mmHg 88%
    09:00 -5°C° 0 mm 3 mps 756 mmHg 87%
    10:00 -5°C° 0 mm 3 mps 757 mmHg 86%
    11:00 -4°C° 0 mm 3 mps 757 mmHg 85%
    12:00 -4°C° 0 mm 3 mps 757 mmHg 84%
    13:00 -4°C° 0 mm 3 mps 756 mmHg 84%
    14:00 -4°C° 0 mm 4 mps 756 mmHg 83%
    15:00 -4°C° 0 mm 3 mps 756 mmHg 84%
    16:00 -5°C° 0 mm 3 mps 756 mmHg 86%
    17:00 -5°C° 0 mm 3 mps 756 mmHg 87%
    18:00 -5°C° 0 mm 3 mps 756 mmHg 87%
    19:00 -5°C° 0 mm 3 mps 756 mmHg 87%
    20:00 -5°C° 0 mm 3 mps 756 mmHg 86%
    21:00 -5°C° 0 mm 3 mps 756 mmHg 87%
    22:00 -5°C° 0 mm 3 mps 756 mmHg 87%
    23:00 -5°C° 0 mm 3 mps 756 mmHg 87%

    20 December, Wednesday

    Time Temperature Precipitation Wind Pressure Humidity
    00:00 -5°C° 0 mm 3 mps 756 mmHg 87%
    01:00 -5°C° 0 mm 3 mps 755 mmHg 87%
    02:00 -5°C° 0 mm 3 mps 755 mmHg 88%
    03:00 -4°C° 0.1 mm 2 mps 755 mmHg 89%
    04:00 -4°C° 0.1 mm 2 mps 755 mmHg 91%
    05:00 -4°C° 0.1 mm 2 mps 754 mmHg 92%
    06:00 -4°C° 0 mm 2 mps 754 mmHg 93%
    07:00 -4°C° 0 mm 2 mps 754 mmHg 93%
    08:00 -2°C° 0 mm 1 mps 755 mmHg 94%
    09:00 -2°C° 0 mm 1 mps 755 mmHg 92%
    10:00 -1°C° 0 mm 1 mps 755 mmHg 90%
    11:00 -1°C° 0 mm 1 mps 755 mmHg 88%
    12:00 0°C° 0 mm 1 mps 755 mmHg 87%
    13:00 0°C° 0 mm 1 mps 755 mmHg 86%
    14:00 0°C° 0 mm 1 mps 755 mmHg 85%
    15:00 0°C° 0 mm 1 mps 755 mmHg 87%
    16:00 0°C° 0 mm 1 mps 755 mmHg 89%
    17:00 -1°C° 0 mm 1 mps 755 mmHg 91%
    18:00 -1°C° 0 mm 1 mps 756 mmHg 91%
    19:00 -1°C° 0 mm 1 mps 756 mmHg 90%
    20:00 -1°C° 0 mm 1 mps 756 mmHg 90%
    21:00 -1°C° 0 mm 1 mps 756 mmHg 90%
    22:00 -1°C° 0 mm 1 mps 756 mmHg 89%
    23:00 -1°C° 0 mm 1 mps 756 mmHg 88%

    21 December, Thursday

    Time Temperature Precipitation Wind Pressure Humidity
    00:00 -1°C° 0 mm 1 mps 756 mmHg 87%
    01:00 -1°C° 0 mm 1 mps 757 mmHg 87%
    02:00 -1°C° 0 mm 1 mps 757 mmHg 86%
    03:00 -1°C° 0 mm 1 mps 756 mmHg 86%
    04:00 -1°C° 0 mm 1 mps 756 mmHg 86%
    05:00 -1°C° 0 mm 1 mps 756 mmHg 87%
    06:00 -1°C° 0 mm 1 mps 756 mmHg 88%
    07:00 -2°C° 0 mm 1 mps 756 mmHg 89%
    08:00 -2°C° 0 mm 1 mps 756 mmHg 90%
    09:00 -2°C° 0 mm 1 mps 756 mmHg 88%
    10:00 -3°C° 0 mm 2 mps 756 mmHg 86%
    11:00 -3°C° 0 mm 2 mps 756 mmHg 84%
    12:00 -2°C° 0 mm 2 mps 755 mmHg 82%
    13:00 -2°C° 0 mm 2 mps 755 mmHg 81%
    14:00 -2°C° 0 mm 2 mps 754 mmHg 80%
    15:00 -2°C° 0 mm 2 mps 754 mmHg 83%
    16:00 -3°C° 0 mm 2 mps 754 mmHg 85%
    17:00 -4°C° 0 mm 2 mps 753 mmHg 88%
    18:00 -3°C° 0 mm 2 mps 753 mmHg 88%
    19:00 -4°C° 0 mm 3 mps 753 mmHg 87%
    20:00 -4°C° 0 mm 3 mps 752 mmHg 87%
    21:00 -4°C° 0.1 mm 3 mps 752 mmHg 87%
    22:00 -2°C° 0.1 mm 3 mps 751 mmHg 88%
    23:00 -2°C° 0.1 mm 3 mps 750 mmHg 88%
    Show more